map of PVH home
PVH - Airport
Location
City:  Porto Velho, Rond˘nia, Brazil
Name:Governador Jorge Teixeira de Oliveira
ICAO:SBPV
IATA:PVH

Details
Type:Airport (Aerodrome, Airfield)
Use:Public/Civil, International (customs port of entry)
Latitude:8░42'33"S (-8.709293)
Longitude:63░54'08"W (-63.902280)
Datum:WGS 1984
Elevation:294 ft (90 m)
Variation:12.81░W (WMM2015 magnetic declination)
-0.16░ annual change
Runways:1
Longest:7925 × 148 ft (2416 × 45 m), paved

Time
Time Zone:UTC-4
Local Time:

Weather
METAR:SBPV 280300Z 00000KT CAVOK 24/20 Q1012
TAF:SBPV 271600Z 2718/2818 04008KT 9999 SCT030 TN21/2809Z TX33/2818Z
BECMG 2722/2724 13005KT CAVOK
BECMG 2801/2803 00000KT
BECMG 2809/2811 1800 5KT
BECMG 2815/2817 11005KT 9999 FEW030
RMK PCQ

Related Locations
Nearby:
Farthest:KUD: 12300 mi / 19794 km
Kudat, 12, MY

Find:

   beyond  
but within

Other Information
Maps:
NOTAMs:
Links:
Sources:

  
flag of Brazil
flag of Rond˘nia
  

Sectional Chart

Flight Planning
at skyvector.com

Satellite Image

Google Maps Satellite view

 

Copyright © 2004-2017 Karl L. Swartz. All rights reserved.
The Great Circle Mapper name and logo are trademarks of the Great Circle Mapper.
All other trademarks mentioned herein belong to their respective owners.
Please see credits for attibutions and further copyright information.

  Follow gcmap on Facebook Follow gcmap on Twitter Follow gcmap on Google+ GCmap on LinkedIn

hCard Microformat

Geo Microformat